STARLINK-1733, 46564

Orbit data source: Space-Track

STARLINK-1733, 46564 is a payload satellite owned by SpaceX/Seattle (US) in LEO that was launched on Tue, 06 Oct 2020 UTC via an FALCON 9 launch vehicle from the Air Force Eastern Test Range (AFETR). Payload-class satellites include a variety of spacecraft equipped with specific instruments for various scientific and technological missions. These include communications satellites like Starlink; space stations such as the ISS; scientific satellites like the Hubble; Earth observation satellites from companies like Planet Labs, Umbra, and HawkEye 360; GPS; miniature CubeSats for education and research; and military/defense satellites.

Loading next visibility...
Identifier
46564, 2020-070AJ
Orbit
LEO
Country
Flag of USUS
Related business
Manufacturer
SpaceX/Seattle
Mission
Partially operational Commercial Communications
Bus & Motor
STARLINK, Unknown motor
Mass
260 kg wet, ~248 kg dry
Launch date (UTC)
2020-10-06 (6 years ago)
Launch vehicle
FALCON 9
Launch site
Air Force Eastern Test Range (AFETR)
Object type
Payload
Rocket body
Debris
Shape & HBR
Box + 1 Pan, 10.1 m
Radar Cross Section
13.562 m², Large (>1 m²)

Expand to show TLE details & history
Last TLE update: 4 hours ago

TLE from 4 hours ago
0 STARLINK-1733
1 46564U 20070AJ  26123.25003471  .00476153  10867-3  92290-3 0  9996
2 46564  53.0312 191.7333 0011768   0.4791 303.5949 15.99664645  5959
Epoch: 2026-05-03T06:00Z
TLE epoch observation values (Epoch: 2026-05-03T06:00:02.998Z)
Latitude
-41.70977°
Longitude
-161.27605°
Altitude
284.866 km
Speed
7.739 km/s
True Right ascension
09h 59m 34s
True Declination
-41° 31' 37"
Sunlit
Object was in full shadow at epoch
Visualization orbit readout
Latitude
Unknown
Longitude
Unknown
Altitude
Unknown
Speed
Unknown
Apparent Right ascension
Unknown
Apparent Declination
Unknown
Sunlit
N/A
Visualization observer readout
Local Sidereal Time
17:59:07
Azimuth
Unknown
Elevation
Unknown
Doppler factor
Unknown
Orbital elements
Apogee altitude
283.464 km
Perigee altitude
267.804 km
Semi-major axis
6,653.771 km
Eccentricity
0.00118
Inclination
53.0312°
RAAN
191.7333°
Arg. of periapsis
0.4791°
True anomaly
303.48248°
Mean anomaly
303.5949°
Eccentric anomaly
303.5387°
Mean motion
3.99891 °/min
Orbital period
90.02 mins
BSTAR
0.0009229
Loading maneuver chart data...
Computing Atmospheric mass density...

Documentation

Showing up to 5 results
|